{"data":{"norad_id":64678,"intl_designator":"2025-139Q","name":"STARLINK-34525","alt_names":[],"object_type":"PAYLOAD","status":"ACTIVE","operator":null,"country":"US","launch_date":"2025-06-28","launch_site_code":"AFETR","launch_vehicle":null,"mission":null,"orbit_class":"UNKNOWN","rcs_meters":null,"size_class":null,"mass_kg":null,"dimensions":null,"purposes":["comms"],"wikipedia_slug":null,"has_3d_model":false,"image_url":null,"decayed_at":null,"tle_current":{"epoch":"2026-09-20T09:40:40.984896Z","epoch_age_seconds":140043,"freshness":"FRESH","line1":"1 64678U 25139Q   26263.40325214  .00011995  00000+0  36558-3 0  9995","line2":"2 64678  53.1599 299.9177 0001354  90.6561 269.4596 15.34399831 70137","mean_motion":15.34399831,"eccentricity":0.0001354,"inclination_deg":53.1599,"raan_deg":299.9177,"arg_perigee_deg":90.6561,"mean_anomaly_deg":269.4596,"bstar":0.00036558,"rev_number":7013,"period_min":93.8477684178,"perigee_km":461.77749267423,"apogee_km":463.6299923473,"semimajor_km":6840.8407425108,"source":"CELESTRAK","updated_at":"2026-09-21T09:00:35.399827Z"}}}